sat.trackr.live / text

‹ back to catalog

STARLINK-37205

NORAD 68332 · 2026-059M

PAYLOAD ACTIVE UNKNOWN

§ Identity

Operator
Country
US
Launch date
2026-03-22
Launch site
AFETR
Launch vehicle
Mass (kg)
RCS (m²)

Purposes: comms

External: N2YO · Heavens-Above · Gunter

§ Orbital elements

Epoch: 2026-05-24T23:33:11.581056Z

Period
94.10 min
Inclination
53.1602°
Eccentricity
0.0001110
Mean motion
15.30233145 rev/d
Perigee alt
474.4 km
Apogee alt
475.9 km
Semi-major
6,853.3 km
B*
6.1444e-4
RAAN
354.0910°
Arg perigee
93.9903°
Mean anomaly
266.1225°
Rev number
985

§ Raw data

STARLINK-372051 68332U 26059M   26144.98138404  .00017901  00000+0  61444-3 0  99972 68332  53.1602 354.0910 0001110  93.9903 266.1225 15.30233145  9852

JSON: /api/v1/satellites/68332 · /tle

For live sub-satellite position, see the globe view (requires WebGL).

§ Visibility from observer

Set your observer location to see the next 7 days of passes ≥ 10°. The values pass through the URL so the page stays shareable.

No JS? Fill the form by hand. The geolocation button needs JavaScript.